Location: Fassifern
(32.9833°S, 151.5833°E)
Time: 07:17:11
(UTC+00:00)

Daily predictions for brighter satellites

Satellite Brightness Start Highest point End
(mag) Time Altitude Azimuth Time Altitude Azimuth Time Altitude Azimuth
SL-16 R/B 4.0 17:35:05 26° ESE 17:35:05 26° ESE 17:37:50 10° SE
CZ-3A R/B 4.4 17:56:03 13° NNE 17:57:55 15° NE 18:02:41 10° ENE
CZ-4C R/B 4.2 18:06:34 15° SSE 18:08:51 19° SE 18:12:14 10° E
CZ-3 R/B 3.6 18:01:42 29° NW 18:14:35 55° N 18:22:23 10° E
ATLAS 2AS CENTAUR R/B 3.2 18:31:27 44° NW 18:31:27 44° NW 18:37:27 10° N
CZ-4B R/B 3.7 18:28:43 10° SE 18:31:43 26° E 18:34:41 10° NNE
H-2A R/B 3.6 18:38:33 10° NNE 18:40:45 33° N 18:40:45 33° N
Cosmos 1607 4.2 18:38:14 10° NNW 18:44:33 68° ENE 18:50:48 10° SSE
SL-08 ROCKET BODY 4.2 18:41:41 10° N 18:47:33 80° W 18:53:29 10° S
CZ-4B DEB 4.2 18:45:09 10° NNE 18:50:43 86° ESE 18:56:22 10° SSW
Cosmos 2056 Rocket 4.0 18:45:52 10° S 18:51:01 59° ESE 18:56:12 10° NNE
PAYLOAD B 4.4 18:45:55 10° NNE 18:51:27 73° ESE 18:57:05 10° S
Cosmos 1386 Rocket 4.3 18:48:34 10° N 18:54:39 80° W 19:00:56 10° S
Cosmos 2278 Rocket 4.0 19:01:05 15° NW 19:01:05 15° NW 19:02:23 10° NNW
Lacrosse 5 4.0 19:00:39 13° SSW 19:00:39 13° SSW 19:01:56 10° S
Shenzhou-11 Module 4.0 19:01:11 19° SE 19:01:11 19° SE 19:02:01 10° SE
Abrixas rocket 3.1 18:59:52 39° SE 18:59:52 39° SE 19:02:28 10° ENE
SJ-7 4.4 18:59:34 10° N 19:03:47 85° WNW 19:08:07 10° SSW
Cosmos 1315 Rocket 3.1 18:59:48 10° S 19:03:51 69° E 19:07:53 10° NNE
YAOGAN 6 4.3 19:02:28 10° NE 19:05:39 33° ESE 19:08:54 10° S
Meteor 1-11 4.1 19:00:21 10° NNW 19:05:57 73° W 19:11:36 10° S
APEX 4.0 19:03:02 11° SSW 19:08:56 76° WNW 19:13:51 10° NNE
Cosmos 1745 Rocket 4.0 19:03:18 10° NNW 19:09:18 54° W 19:15:23 10° S
CZ-4B R/B 3.5 19:03:56 10° NNE 19:09:35 75° ESE 19:15:19 10° S
Cosmos 371 Rocket 4.3 19:05:36 10° S 19:10:23 47° ESE 19:15:05 10° NE
Cosmos-2242 2.9 19:07:45 14° SSW 19:11:24 60° W 19:15:39 10° N
ASTEX 1 3.5 19:07:10 10° N 19:11:59 52° W 19:16:55 10° SSW
RESURS DK-1 2.9 19:09:04 12° SSW 19:12:56 60° ESE 19:17:00 10° NNE
Cosmos 1953 Rocket 3.7 19:10:30 10° NNW 19:14:47 50° W 19:19:06 10° S
SAR-Lupe-4 3.4 19:11:26 10° S 19:15:04 75° WSW 19:18:39 10° NNW
SL-16 R/B 3.2 19:17:02 25° WSW 19:17:02 25° WSW 19:21:24 10° S
SMAP 3.5 19:13:09 10° NNE 19:17:46 63° ESE 19:22:26 10° S
H-2A R/B 2.7 19:15:02 10° N 19:18:50 59° W 19:22:30 11° SSW
Iridium 82 4.5 19:17:52 10° N 19:21:41 73° W 19:25:22 10° S
Okean O Rocket 1.6 19:18:18 10° NNE 19:22:47 87° WNW 19:27:18 10° SSW
Cosmos 2369 Rocket 3.6 19:18:17 10° S 19:23:37 39° ESE 19:28:52 10° NE
Cosmos 1892 3.9 19:24:47 10° NNE 19:28:25 44° E 19:32:04 10° SSE
SAR-Lupe-1 4.3 19:26:48 10° S 19:30:20 48° WSW 19:33:49 10° NNW
Cosmos 1624 Rocket 4.2 19:28:36 10° SSW 19:33:47 50° WNW 19:38:53 10° N
Cosmos 2297 4.1 19:34:50 10° SW 19:40:13 43° WNW 19:45:36 10° N
COSMOS 2455 3.1 19:34:59 10° SW 19:40:43 47° WNW 19:46:25 10° N
ERBS 4.3 19:38:11 10° N 19:41:11 31° ENE 19:44:14 10° ESE
Nadezhda 1 Rocket 4.4 19:36:28 10° SSW 19:42:17 40° W 19:48:08 10° NNW
ADEOS Rocket 3.1 19:39:16 10° S 19:45:30 71° WSW 19:52:23 10° NNW
Cosmos 1420 Rocket 3.9 19:42:52 10° SSW 19:48:05 75° WNW 19:53:16 10° N
Helios 1A Rocket 3.9 19:44:58 10° NNE 19:49:00 52° ESE 19:53:05 10° S
SKYMED 2 4.0 19:45:09 10° SSE 19:49:33 67° E 19:53:53 10° N
Cosmos 1709 Rocket 4.2 19:44:06 10° NNW 19:49:56 46° W 19:55:53 10° S
USA 81 4.5 19:45:30 10° N 19:50:45 69° E 19:56:04 10° S
Cosmos 1943 Rocket 2.2 19:49:43 10° SSW 19:55:19 69° WNW 20:00:54 10° N
Cosmos 1603 4.0 19:51:00 10° NW 19:56:22 44° WSW 20:01:46 10° S
CZ-4C R/B 2.1 19:52:46 10° SW 19:57:36 44° WNW 20:01:56 10° N
Cosmos 1048 Rocket 4.2 19:54:31 10° NNW 19:59:42 53° WSW 20:05:00 10° S
CORIOLIS 4.2 19:54:45 10° N 20:00:02 60° WNW 20:05:23 10° SSW
PSLV R/B 4.0 19:58:08 10° S 20:02:22 62° WSW 20:06:33 10° NNW
CZ-4B R/B 3.3 20:01:52 10° SW 20:03:42 14° WSW 20:05:30 10° W
ISS -2.7 20:01:37 10° SSW 20:04:57 44° SE 20:08:12 10° ENE
Cosmos 1939 Rocket 3.9 20:03:28 10° NNE 20:07:31 52° ESE 20:11:36 10° S
Cosmos 304 Rocket 3.8 20:07:26 10° SSW 20:12:18 84° WNW 20:17:08 10° NNE
